Omaha, IA

6:06 AM CDT on September 25, 2017 (GMT -0500)
Eppley Airfield

Weather History for KOMA - February, 2013

Change the Weather History Date:

Sunday, February 3, 2013

  Actual Average Record
Temperature  
Mean Temperature 30 °F 25 °F  
Max Temperature 41 °F 35 °F 65 °F (1934)
Min Temperature 19 °F 15 °F -20 °F (1996)
Degree Days  
Heating Degree Days 35 40  
Month to date heating degree days 121 120  
Since 1 July heating degree days 3611 3885  
Cooling Degree Days 0 0  
Month to date cooling degree days 0 0  
Year to date cooling degree days 0 0  
Moisture  
Dew Point 21 °F    
Average Humidity 63    
Maximum Humidity 75    
Minimum Humidity 51    
Precipitation  
Precipitation 0.00 in 0.03 in 0.46 in (1903)
Month to date precipitation T 0.08  
Year to date precipitation 0.50 0.80  
Snow  
Snow 0.00 in 0.20 in - ()
Month to date snowfall T 0.7  
Since 1 July snowfall 12.1 15.8  
Snow Depth 2.00 in    
Sea Level Pressure  
Sea Level Pressure 30.07 in    
Wind  
Wind Speed 10 mph (SSW)    
Max Wind Speed 23 mph    
Max Gust Speed 29 mph    
Visibility 10 miles    
Events      
T = Trace of Precipitation, MM = Missing Value Source: NWS Daily Summary

Daily Weather History Graph

Daily Weather History Graph

Search for Another Location

Airport or City:

Trip Planner

Search our weather history database for the weather conditions in past years. The results will help you decide how hot, cold, wet, or windy it might be!

Date:

Astronomy

Feb. 03, 2013 Rise Set
Actual Time 7:32 AM CST 5:42 PM CST
Civil Twilight 7:03 AM CST 6:12 PM CST
Nautical Twilight 6:30 AM CST 6:44 PM CST
Astronomical Twilight 5:58 AM CST 7:17 PM CST
Moon 1:01 AM CST (2/3) 11:20 AM CST (2/3)
Length of Visible Light 11h 08m
Length of Day
10h 10m
Waning Gibbous, 48% of the Moon is Illuminated
Feb 3
Waning Gibbous
Feb 10
New
Feb 17
First Quarter
Feb 25
Full
Mar 4
Last Quarter

Hourly Weather History & Observations

Time (CST) Temp. Windchill Dew Point Humidity Pressure Visibility Wind Dir Wind Speed Gust Speed Precip Events Conditions
12:52 AM 32.0 °F 20.8 °F 23.0 °F 69% 30.19 in 10.0 mi NNW 17.3 mph 24.2 mph N/A   Partly Cloudy
1:52 AM 30.2 °F 19.8 °F 21.2 °F 69% 30.18 in 10.0 mi NW 13.8 mph - N/A   Partly Cloudy
2:52 AM 28.9 °F 18.2 °F 19.9 °F 69% 30.22 in 10.0 mi NW 13.8 mph - N/A   Clear
3:52 AM 26.1 °F 17.6 °F 19.0 °F 75% 30.22 in 10.0 mi NNW 8.1 mph - N/A   Clear
4:52 AM 25.0 °F 13.6 °F 15.1 °F 66% 30.24 in 10.0 mi NW 12.7 mph - N/A   Clear
5:52 AM 23.0 °F 13.1 °F 12.2 °F 63% 30.22 in 10.0 mi NNW 9.2 mph - N/A   Clear
6:52 AM 19.9 °F 12.1 °F 12.0 °F 71% 30.24 in 10.0 mi NNW 5.8 mph - N/A   Clear
7:52 AM 21.9 °F - 12.9 °F 68% 30.26 in 10.0 mi Calm Calm - N/A   Partly Cloudy
8:52 AM 25.0 °F 19.3 °F 15.1 °F 66% 30.25 in 10.0 mi SW 4.6 mph - N/A   Partly Cloudy
9:52 AM 28.0 °F 24.2 °F 16.0 °F 61% 30.21 in 10.0 mi SSW 3.5 mph - N/A   Scattered Clouds
10:52 AM 30.9 °F 23.5 °F 16.0 °F 54% 30.18 in 10.0 mi South 8.1 mph - N/A   Partly Cloudy
11:52 AM 34.0 °F 26.0 °F 18.0 °F 52% 30.14 in 10.0 mi SSW 10.4 mph - N/A   Clear
12:52 PM 36.0 °F 27.1 °F 19.9 °F 52% 30.09 in 10.0 mi South 13.8 mph - N/A   Scattered Clouds
1:52 PM 37.9 °F 29.2 °F 24.1 °F 57% 30.06 in 10.0 mi South 15.0 mph - N/A   Scattered Clouds
2:52 PM 39.9 °F 32.5 °F 24.1 °F 53% 30.01 in 10.0 mi SSW 12.7 mph 21.9 mph N/A   Mostly Cloudy
3:52 PM 41.0 °F 34.3 °F 25.0 °F 53% 29.97 in 10.0 mi South 11.5 mph 23.0 mph N/A   Mostly Cloudy
4:52 PM 39.9 °F 31.8 °F 25.0 °F 55% 29.94 in 10.0 mi South 15.0 mph - N/A   Mostly Cloudy
5:52 PM 39.0 °F 32.8 °F 27.0 °F 62% 29.92 in 10.0 mi South 9.2 mph - N/A   Mostly Cloudy
6:52 PM 37.0 °F 30.4 °F 28.0 °F 70% 29.92 in 10.0 mi SSE 9.2 mph - N/A   Mostly Cloudy
7:52 PM 37.0 °F 31.0 °F 28.0 °F 70% 29.91 in 10.0 mi South 8.1 mph - N/A   Mostly Cloudy
8:52 PM 35.1 °F 27.4 °F 27.0 °F 72% 29.88 in 10.0 mi SSE 10.4 mph - N/A   Overcast
9:52 PM 36.0 °F 29.0 °F 27.0 °F 70% 29.86 in 10.0 mi SSE 9.2 mph - N/A   Overcast
10:52 PM 37.0 °F 31.6 °F 27.0 °F 67% 29.83 in 10.0 mi South 6.9 mph - N/A   Overcast
11:52 PM 36.0 °F 31.1 °F 27.0 °F 70% 29.81 in 10.0 mi South 5.8 mph - N/A   Mostly Cloudy